Year,Month,Day,Hour,Minute,Value (Times are PST for temperature in C)
2018,07,30,00,00,20.70
2018,07,30,00,01,20.70
2018,07,30,00,02,20.60
2018,07,30,00,03,20.70
2018,07,30,00,04,20.70
2018,07,30,00,05,20.70
2018,07,30,00,06,20.60
2018,07,30,00,07,20.60
2018,07,30,00,08,20.60
2018,07,30,00,09,20.60
2018,07,30,00,10,20.60
2018,07,30,00,11,20.50
2018,07,30,00,12,20.50
2018,07,30,00,13,20.50
2018,07,30,00,14,20.40
2018,07,30,00,15,20.40
2018,07,30,00,16,20.40
2018,07,30,00,17,20.40
2018,07,30,00,18,20.40
2018,07,30,00,19,20.50
2018,07,30,00,20,20.50
2018,07,30,00,21,20.50
2018,07,30,00,22,20.60
2018,07,30,00,23,20.60
2018,07,30,00,24,20.60
2018,07,30,00,25,20.60
2018,07,30,00,26,20.50
2018,07,30,00,27,20.40
2018,07,30,00,28,20.40
2018,07,30,00,29,20.30
2018,07,30,00,30,20.20
2018,07,30,00,31,20.10
2018,07,30,00,32,20.10
2018,07,30,00,33,20.10
2018,07,30,00,34,20.10
2018,07,30,00,35,20.20
2018,07,30,00,36,20.20
2018,07,30,00,37,20.20
2018,07,30,00,38,20.20
2018,07,30,00,39,20.20
2018,07,30,00,40,20.20
2018,07,30,00,41,20.10
2018,07,30,00,42,20.10
2018,07,30,00,43,20.10
2018,07,30,00,44,20.00
2018,07,30,00,45,20.00
2018,07,30,00,46,19.90
2018,07,30,00,47,19.90
2018,07,30,00,48,19.90
2018,07,30,00,49,19.90
2018,07,30,00,50,19.80
2018,07,30,00,51,19.80
2018,07,30,00,52,19.80
2018,07,30,00,53,19.80
2018,07,30,00,54,19.80
2018,07,30,00,55,19.70
2018,07,30,00,56,19.70
2018,07,30,00,57,19.60
2018,07,30,00,58,19.60
2018,07,30,00,59,19.60
2018,07,30,01,00,19.60
2018,07,30,01,01,19.80
2018,07,30,01,02,20.00
2018,07,30,01,03,20.20
2018,07,30,01,04,20.40
2018,07,30,01,05,20.50
2018,07,30,01,06,20.60
2018,07,30,01,07,20.70
2018,07,30,01,08,20.80
2018,07,30,01,09,20.80
2018,07,30,01,10,20.80
2018,07,30,01,11,20.80
2018,07,30,01,12,20.80
2018,07,30,01,13,20.80
2018,07,30,01,14,20.70
2018,07,30,01,15,20.70
2018,07,30,01,16,20.60
2018,07,30,01,17,20.50
2018,07,30,01,18,20.30
2018,07,30,01,19,20.20
2018,07,30,01,20,20.10
2018,07,30,01,21,19.90
2018,07,30,01,22,19.80
2018,07,30,01,23,19.70
2018,07,30,01,24,19.60
2018,07,30,01,25,19.60
2018,07,30,01,26,19.60
2018,07,30,01,27,19.70
2018,07,30,01,28,19.70
2018,07,30,01,29,19.70
2018,07,30,01,30,19.70
2018,07,30,01,31,19.60
2018,07,30,01,32,19.60
2018,07,30,01,33,19.60
2018,07,30,01,34,19.60
2018,07,30,01,35,19.60
2018,07,30,01,36,19.60
2018,07,30,01,37,19.70
2018,07,30,01,38,19.70
2018,07,30,01,39,19.80
2018,07,30,01,40,20.00
2018,07,30,01,41,20.10
2018,07,30,01,42,20.20
2018,07,30,01,43,20.30
2018,07,30,01,44,20.40
2018,07,30,01,45,20.50
2018,07,30,01,46,20.50
2018,07,30,01,47,20.40
2018,07,30,01,48,20.20
2018,07,30,01,49,20.00
2018,07,30,01,50,19.90
2018,07,30,01,51,19.80
2018,07,30,01,52,19.70
2018,07,30,01,53,19.70
2018,07,30,01,54,19.70
2018,07,30,01,55,19.70
2018,07,30,01,56,19.70
2018,07,30,01,57,19.80
2018,07,30,01,58,19.80
2018,07,30,01,59,19.80
2018,07,30,02,00,19.80
2018,07,30,02,01,19.80
2018,07,30,02,02,19.80
2018,07,30,02,03,19.80
2018,07,30,02,04,19.80
2018,07,30,02,05,19.80
2018,07,30,02,06,19.80
2018,07,30,02,07,19.80
2018,07,30,02,08,19.80
2018,07,30,02,09,19.90
2018,07,30,02,10,20.00
2018,07,30,02,11,20.00
2018,07,30,02,12,20.20
2018,07,30,02,13,20.20
2018,07,30,02,14,20.30
2018,07,30,02,15,20.30
2018,07,30,02,16,20.30
2018,07,30,02,17,20.40
2018,07,30,02,18,20.40
2018,07,30,02,19,20.50
2018,07,30,02,20,20.50
2018,07,30,02,21,20.50
2018,07,30,02,22,20.50
2018,07,30,02,23,20.40
2018,07,30,02,24,20.30
2018,07,30,02,25,20.30
2018,07,30,02,26,20.30
2018,07,30,02,27,20.20
2018,07,30,02,28,20.20
2018,07,30,02,29,20.30
2018,07,30,02,30,20.20
2018,07,30,02,31,20.20
2018,07,30,02,32,20.10
2018,07,30,02,33,20.10
2018,07,30,02,34,20.00
2018,07,30,02,35,19.90
2018,07,30,02,36,19.90
2018,07,30,02,37,19.90
2018,07,30,02,38,20.00
2018,07,30,02,39,20.10
2018,07,30,02,40,20.20
2018,07,30,02,41,20.30
2018,07,30,02,42,20.30
2018,07,30,02,43,20.30
2018,07,30,02,44,20.30
2018,07,30,02,45,20.10
2018,07,30,02,46,20.00
2018,07,30,02,47,19.80
2018,07,30,02,48,19.60
2018,07,30,02,49,19.50
2018,07,30,02,50,19.30
2018,07,30,02,51,19.20
2018,07,30,02,52,19.20
2018,07,30,02,53,19.20
2018,07,30,02,54,19.20
2018,07,30,02,55,19.20
2018,07,30,02,56,19.20
2018,07,30,02,57,19.10
2018,07,30,02,58,19.10
2018,07,30,02,59,19.10
2018,07,30,03,00,19.00
2018,07,30,03,01,18.90
2018,07,30,03,02,18.90
2018,07,30,03,03,18.90
2018,07,30,03,04,18.90
2018,07,30,03,05,18.90
2018,07,30,03,06,19.00
2018,07,30,03,07,19.10
2018,07,30,03,08,19.10
2018,07,30,03,09,19.20
2018,07,30,03,10,19.20
2018,07,30,03,11,19.30
2018,07,30,03,12,19.30
2018,07,30,03,13,19.30
2018,07,30,03,14,19.30
2018,07,30,03,15,19.10
2018,07,30,03,16,19.00
2018,07,30,03,17,18.80
2018,07,30,03,18,18.70
2018,07,30,03,19,18.60
2018,07,30,03,20,18.50
2018,07,30,03,21,18.40
2018,07,30,03,22,18.30
2018,07,30,03,23,18.20
2018,07,30,03,24,18.10
2018,07,30,03,25,18.10
2018,07,30,03,26,18.10
2018,07,30,03,27,18.10
2018,07,30,03,28,18.20
2018,07,30,03,29,18.20
2018,07,30,03,30,18.30
2018,07,30,03,31,18.40
2018,07,30,03,32,18.50
2018,07,30,03,33,18.50
2018,07,30,03,34,18.60
2018,07,30,03,35,18.70
2018,07,30,03,36,18.60
2018,07,30,03,37,18.60
2018,07,30,03,38,18.50
2018,07,30,03,39,18.40
2018,07,30,03,40,18.40
2018,07,30,03,41,18.40
2018,07,30,03,42,18.40
2018,07,30,03,43,18.50
2018,07,30,03,44,18.60
2018,07,30,03,45,18.70
2018,07,30,03,46,18.70
2018,07,30,03,47,18.70
2018,07,30,03,48,18.70
2018,07,30,03,49,18.70
2018,07,30,03,50,18.70
2018,07,30,03,51,18.70
2018,07,30,03,52,18.80
2018,07,30,03,53,18.70
2018,07,30,03,54,18.70
2018,07,30,03,55,18.70
2018,07,30,03,56,18.60
2018,07,30,03,57,18.60
2018,07,30,03,58,18.50
2018,07,30,03,59,18.50
2018,07,30,04,00,18.50
2018,07,30,04,01,18.60
2018,07,30,04,02,18.60
2018,07,30,04,03,18.60
2018,07,30,04,04,18.70
2018,07,30,04,05,18.70
2018,07,30,04,06,18.70
2018,07,30,04,07,18.60
2018,07,30,04,08,18.60
2018,07,30,04,09,18.50
2018,07,30,04,10,18.50
2018,07,30,04,11,18.40
2018,07,30,04,12,18.40
2018,07,30,04,13,18.40
2018,07,30,04,14,18.40
2018,07,30,04,15,18.40
2018,07,30,04,16,18.40
2018,07,30,04,17,18.40
2018,07,30,04,18,18.30
2018,07,30,04,19,18.20
2018,07,30,04,20,18.10
2018,07,30,04,21,18.00
2018,07,30,04,22,17.90
2018,07,30,04,23,17.80
2018,07,30,04,24,17.80
2018,07,30,04,25,17.80
2018,07,30,04,26,17.90
2018,07,30,04,27,17.90
2018,07,30,04,28,18.00
2018,07,30,04,29,18.10
2018,07,30,04,30,18.20
2018,07,30,04,31,18.20
2018,07,30,04,32,18.30
2018,07,30,04,33,18.30
2018,07,30,04,34,18.30
2018,07,30,04,35,18.30
2018,07,30,04,36,18.40
2018,07,30,04,37,18.40
2018,07,30,04,38,18.50
2018,07,30,04,39,18.60
2018,07,30,04,40,18.60
2018,07,30,04,41,18.70
2018,07,30,04,42,18.70
2018,07,30,04,43,18.60
2018,07,30,04,44,18.60
2018,07,30,04,45,18.50
2018,07,30,04,46,18.50
2018,07,30,04,47,18.40
2018,07,30,04,48,18.40
2018,07,30,04,49,18.30
2018,07,30,04,50,18.20
2018,07,30,04,51,18.20
2018,07,30,04,52,18.10
2018,07,30,04,53,18.10
2018,07,30,04,54,18.00
2018,07,30,04,55,17.90
2018,07,30,04,56,17.90
2018,07,30,04,57,17.80
2018,07,30,04,58,17.80
2018,07,30,04,59,17.80
2018,07,30,05,00,17.80
2018,07,30,05,01,17.80
2018,07,30,05,02,17.80
2018,07,30,05,03,17.80
2018,07,30,05,04,17.80
2018,07,30,05,05,17.70
2018,07,30,05,06,17.70
2018,07,30,05,07,17.70
2018,07,30,05,08,17.70
2018,07,30,05,09,17.70
2018,07,30,05,10,17.60
2018,07,30,05,11,17.60
2018,07,30,05,12,17.60
2018,07,30,05,13,17.60
2018,07,30,05,14,17.60
2018,07,30,05,15,17.60
2018,07,30,05,16,17.60
2018,07,30,05,17,17.60
2018,07,30,05,18,17.60
2018,07,30,05,19,17.60
2018,07,30,05,20,17.60
2018,07,30,05,21,17.60
2018,07,30,05,22,17.60
2018,07,30,05,23,17.60
2018,07,30,05,24,17.60
2018,07,30,05,25,17.60
2018,07,30,05,26,17.60
2018,07,30,05,27,17.70
2018,07,30,05,28,17.80
2018,07,30,05,29,17.90
2018,07,30,05,30,17.90
2018,07,30,05,31,18.00
2018,07,30,05,32,18.10
2018,07,30,05,33,18.20
2018,07,30,05,34,18.20
2018,07,30,05,35,18.20
2018,07,30,05,36,18.20
2018,07,30,05,37,18.20
2018,07,30,05,38,18.30
2018,07,30,05,39,18.20
2018,07,30,05,40,18.20
2018,07,30,05,41,18.20
2018,07,30,05,42,18.20
2018,07,30,05,43,18.20
2018,07,30,05,44,18.20
2018,07,30,05,45,18.10
2018,07,30,05,46,18.10
2018,07,30,05,47,18.10
2018,07,30,05,48,18.10
2018,07,30,05,49,18.10
2018,07,30,05,50,18.00
2018,07,30,05,51,17.90
2018,07,30,05,52,17.80
2018,07,30,05,53,17.80
2018,07,30,05,54,17.70
2018,07,30,05,55,17.70
2018,07,30,05,56,17.60
2018,07,30,05,57,17.60
2018,07,30,05,58,17.60
2018,07,30,05,59,17.60
2018,07,30,06,00,17.60
2018,07,30,06,01,17.50
2018,07,30,06,02,17.40
2018,07,30,06,03,17.40
2018,07,30,06,04,17.30
2018,07,30,06,05,17.30
2018,07,30,06,06,17.30
2018,07,30,06,07,17.30
2018,07,30,06,08,17.30
2018,07,30,06,09,17.30
2018,07,30,06,10,17.20
2018,07,30,06,11,17.20
2018,07,30,06,12,17.20
2018,07,30,06,13,17.10
2018,07,30,06,14,17.10
2018,07,30,06,15,17.00
2018,07,30,06,16,17.00
2018,07,30,06,17,17.00
2018,07,30,06,18,17.00
2018,07,30,06,19,17.00
2018,07,30,06,20,17.00
2018,07,30,06,21,17.00
2018,07,30,06,22,17.00
2018,07,30,06,23,17.00
2018,07,30,06,24,17.10
2018,07,30,06,25,17.10
2018,07,30,06,26,17.10
2018,07,30,06,27,17.10
2018,07,30,06,28,17.10
2018,07,30,06,29,17.20
2018,07,30,06,30,17.20
2018,07,30,06,31,17.20
2018,07,30,06,32,17.20
2018,07,30,06,33,17.20
2018,07,30,06,34,17.20
2018,07,30,06,35,17.20
2018,07,30,06,36,17.20
2018,07,30,06,37,17.20
2018,07,30,06,38,17.20
2018,07,30,06,39,17.20
2018,07,30,06,40,17.20
2018,07,30,06,41,17.20
2018,07,30,06,42,17.20
2018,07,30,06,43,17.30
2018,07,30,06,44,17.30
2018,07,30,06,45,17.30
2018,07,30,06,46,17.30
2018,07,30,06,47,17.30
2018,07,30,06,48,17.40
2018,07,30,06,49,17.40
2018,07,30,06,50,17.40
2018,07,30,06,51,17.40
2018,07,30,06,52,17.50
2018,07,30,06,53,17.50
2018,07,30,06,54,17.60
2018,07,30,06,55,17.60
2018,07,30,06,56,17.60
2018,07,30,06,57,17.60
2018,07,30,06,58,17.70
2018,07,30,06,59,17.70
2018,07,30,07,00,17.70
2018,07,30,07,01,17.80
2018,07,30,07,02,17.80
2018,07,30,07,03,17.90
2018,07,30,07,04,18.00
2018,07,30,07,05,18.10
2018,07,30,07,06,18.10
2018,07,30,07,07,18.20
2018,07,30,07,08,18.30
2018,07,30,07,09,18.30
2018,07,30,07,10,18.40
2018,07,30,07,11,18.50
2018,07,30,07,12,18.60
2018,07,30,07,13,18.60
2018,07,30,07,14,18.70
2018,07,30,07,15,18.80
2018,07,30,07,16,18.80
2018,07,30,07,17,18.80
2018,07,30,07,18,18.90
2018,07,30,07,19,18.90
2018,07,30,07,20,19.00
2018,07,30,07,21,19.10
2018,07,30,07,22,19.10
2018,07,30,07,23,19.20
2018,07,30,07,24,19.30
2018,07,30,07,25,19.40
2018,07,30,07,26,19.40
2018,07,30,07,27,19.50
2018,07,30,07,28,19.60
2018,07,30,07,29,19.70
2018,07,30,07,30,19.80
2018,07,30,07,31,19.80
2018,07,30,07,32,19.90
2018,07,30,07,33,20.00
2018,07,30,07,34,20.00
2018,07,30,07,35,20.10
2018,07,30,07,36,20.10
2018,07,30,07,37,20.20
2018,07,30,07,38,20.30
2018,07,30,07,39,20.30
2018,07,30,07,40,20.30
2018,07,30,07,41,20.40
2018,07,30,07,42,20.50
2018,07,30,07,43,20.50
2018,07,30,07,44,20.60
2018,07,30,07,45,20.70
2018,07,30,07,46,20.80
2018,07,30,07,47,20.80
2018,07,30,07,48,20.90
2018,07,30,07,49,21.00
2018,07,30,07,50,21.10
2018,07,30,07,51,21.20
2018,07,30,07,52,21.30
2018,07,30,07,53,21.40
2018,07,30,07,54,21.50
2018,07,30,07,55,21.60
2018,07,30,07,56,21.70
2018,07,30,07,57,21.80
2018,07,30,07,58,21.90
2018,07,30,07,59,22.00
2018,07,30,08,00,22.20
2018,07,30,08,01,22.30
2018,07,30,08,02,22.40
2018,07,30,08,03,22.60
2018,07,30,08,04,22.70
2018,07,30,08,05,22.80
2018,07,30,08,06,22.90
2018,07,30,08,07,22.90
2018,07,30,08,08,23.00
2018,07,30,08,09,23.10
2018,07,30,08,10,23.20
2018,07,30,08,11,23.40
2018,07,30,08,12,23.50
2018,07,30,08,13,23.60
2018,07,30,08,14,23.70
2018,07,30,08,15,23.80
2018,07,30,08,16,23.90
2018,07,30,08,17,24.00
2018,07,30,08,18,24.10
2018,07,30,08,19,24.20
2018,07,30,08,20,24.20
2018,07,30,08,21,24.30
2018,07,30,08,22,24.30
2018,07,30,08,23,24.30
2018,07,30,08,24,24.40
2018,07,30,08,25,24.40
2018,07,30,08,26,24.40
2018,07,30,08,27,24.50
2018,07,30,08,28,24.50
2018,07,30,08,29,24.60
2018,07,30,08,30,24.60
2018,07,30,08,31,24.60
2018,07,30,08,32,24.60
2018,07,30,08,33,24.60
2018,07,30,08,34,24.70
2018,07,30,08,35,24.70
2018,07,30,08,36,24.70
2018,07,30,08,37,24.80
2018,07,30,08,38,24.80
2018,07,30,08,39,24.80
2018,07,30,08,40,24.80
2018,07,30,08,41,24.80
2018,07,30,08,42,24.90
2018,07,30,08,43,24.90
2018,07,30,08,44,24.90
2018,07,30,08,45,25.00
2018,07,30,08,46,25.10
2018,07,30,08,47,25.10
2018,07,30,08,48,25.20
2018,07,30,08,49,25.20
2018,07,30,08,50,25.30
2018,07,30,08,51,25.40
2018,07,30,08,52,25.40
2018,07,30,08,53,25.40
2018,07,30,08,54,25.50
2018,07,30,08,55,25.50
2018,07,30,08,56,25.50
2018,07,30,08,57,25.50
2018,07,30,08,58,25.60
2018,07,30,08,59,25.60
2018,07,30,09,00,25.70
2018,07,30,09,01,25.70
2018,07,30,09,02,25.70
2018,07,30,09,03,25.70
2018,07,30,09,04,25.80
2018,07,30,09,05,25.80
2018,07,30,09,06,25.80
2018,07,30,09,07,25.80
2018,07,30,09,08,25.80
2018,07,30,09,09,25.80
2018,07,30,09,10,25.90
2018,07,30,09,11,25.90
2018,07,30,09,12,25.90
2018,07,30,09,13,25.90
2018,07,30,09,14,25.90
2018,07,30,09,15,25.90
2018,07,30,09,16,26.00
2018,07,30,09,17,26.00
2018,07,30,09,18,26.10
2018,07,30,09,19,26.10
2018,07,30,09,20,26.20
2018,07,30,09,21,26.20
2018,07,30,09,22,26.20
2018,07,30,09,23,26.20
2018,07,30,09,24,26.10
2018,07,30,09,25,26.10
2018,07,30,09,26,26.10
2018,07,30,09,27,26.10
2018,07,30,09,28,26.10
2018,07,30,09,29,26.10
2018,07,30,09,30,26.10
2018,07,30,09,31,26.00
2018,07,30,09,32,26.00
2018,07,30,09,33,26.00
2018,07,30,09,34,25.90
2018,07,30,09,35,25.90
2018,07,30,09,36,25.90
2018,07,30,09,37,25.90
2018,07,30,09,38,25.90
2018,07,30,09,39,26.00
2018,07,30,09,40,26.00
2018,07,30,09,41,26.10
2018,07,30,09,42,26.10
2018,07,30,09,43,26.10
2018,07,30,09,44,26.10
2018,07,30,09,45,26.10
2018,07,30,09,46,26.20
2018,07,30,09,47,26.20
2018,07,30,09,48,26.20
2018,07,30,09,49,26.20
2018,07,30,09,50,26.20
2018,07,30,09,51,26.20
2018,07,30,09,52,26.20
2018,07,30,09,53,26.10
2018,07,30,09,54,26.10
2018,07,30,09,55,26.10
2018,07,30,09,56,26.10
2018,07,30,09,57,26.10
2018,07,30,09,58,26.10
2018,07,30,09,59,26.10
2018,07,30,10,00,26.10
2018,07,30,10,01,26.10
2018,07,30,10,02,26.20
2018,07,30,10,03,26.30
2018,07,30,10,04,26.40
2018,07,30,10,05,26.40
2018,07,30,10,06,26.40
2018,07,30,10,07,26.40
2018,07,30,10,08,26.30
2018,07,30,10,09,26.20
2018,07,30,10,10,26.20
2018,07,30,10,11,26.10
2018,07,30,10,12,26.10
2018,07,30,10,13,26.00
2018,07,30,10,14,25.90
2018,07,30,10,15,26.00
2018,07,30,10,16,26.10
2018,07,30,10,17,26.20
2018,07,30,10,18,26.20
2018,07,30,10,19,26.20
2018,07,30,10,20,26.30
2018,07,30,10,21,26.30
2018,07,30,10,22,26.40
2018,07,30,10,23,26.30
2018,07,30,10,24,26.20
2018,07,30,10,25,26.30
2018,07,30,10,26,26.40
2018,07,30,10,27,26.40
2018,07,30,10,28,26.40
2018,07,30,10,29,26.40
2018,07,30,10,30,26.40
2018,07,30,10,31,26.40
2018,07,30,10,32,26.30
2018,07,30,10,33,26.30
2018,07,30,10,34,26.30
2018,07,30,10,35,26.30
2018,07,30,10,36,26.40
2018,07,30,10,37,26.40
2018,07,30,10,38,26.30
2018,07,30,10,39,26.30
2018,07,30,10,40,26.40
2018,07,30,10,41,26.30
2018,07,30,10,42,26.30
2018,07,30,10,43,26.40
2018,07,30,10,44,26.30
2018,07,30,10,45,26.30
2018,07,30,10,46,26.30
2018,07,30,10,47,26.30
2018,07,30,10,48,26.40
2018,07,30,10,49,26.40
2018,07,30,10,50,26.40
2018,07,30,10,51,26.40
2018,07,30,10,52,26.40
2018,07,30,10,53,26.30
2018,07,30,10,54,26.30
2018,07,30,10,55,26.30
2018,07,30,10,56,26.20
2018,07,30,10,57,26.20
2018,07,30,10,58,26.20
2018,07,30,10,59,26.20
2018,07,30,11,00,26.30
2018,07,30,11,01,26.40
2018,07,30,11,02,26.60
2018,07,30,11,03,26.50
2018,07,30,11,04,26.50
2018,07,30,11,05,26.40
2018,07,30,11,06,26.30
2018,07,30,11,07,26.20
2018,07,30,11,08,26.20
2018,07,30,11,09,26.20
2018,07,30,11,10,26.20
2018,07,30,11,11,26.20
2018,07,30,11,12,26.40
2018,07,30,11,13,26.50
2018,07,30,11,14,26.60
2018,07,30,11,15,26.70
2018,07,30,11,16,26.80
2018,07,30,11,17,26.80
2018,07,30,11,18,26.80
2018,07,30,11,19,26.80
2018,07,30,11,20,26.70
2018,07,30,11,21,26.70
2018,07,30,11,22,26.80
2018,07,30,11,23,26.80
2018,07,30,11,24,26.90
2018,07,30,11,25,26.90
2018,07,30,11,26,27.00
2018,07,30,11,27,26.90
2018,07,30,11,28,26.90
2018,07,30,11,29,27.00
2018,07,30,11,30,27.20
2018,07,30,11,31,27.20
2018,07,30,11,32,27.20
2018,07,30,11,33,27.30
2018,07,30,11,34,27.30
2018,07,30,11,35,27.40
2018,07,30,11,36,27.50
2018,07,30,11,37,27.50
2018,07,30,11,38,27.60
2018,07,30,11,39,27.60
2018,07,30,11,40,27.60
2018,07,30,11,41,27.70
2018,07,30,11,42,27.80
2018,07,30,11,43,27.80
2018,07,30,11,44,27.90
2018,07,30,11,45,28.00
2018,07,30,11,46,28.00
2018,07,30,11,47,28.00
2018,07,30,11,48,28.10
2018,07,30,11,49,28.20
2018,07,30,11,50,28.30
2018,07,30,11,51,28.30
2018,07,30,11,52,28.30
2018,07,30,11,53,28.30
2018,07,30,11,54,28.30
2018,07,30,11,55,28.30
2018,07,30,11,56,28.30
2018,07,30,11,57,28.30
2018,07,30,11,58,28.40
2018,07,30,11,59,28.40
2018,07,30,12,00,28.30
2018,07,30,12,01,28.20
2018,07,30,12,02,28.20
2018,07,30,12,03,28.20
2018,07,30,12,04,28.30
2018,07,30,12,05,28.50
2018,07,30,12,06,28.50
2018,07,30,12,07,28.50
2018,07,30,12,08,28.40
2018,07,30,12,09,28.40
2018,07,30,12,10,28.40
2018,07,30,12,11,28.40
2018,07,30,12,12,28.50
2018,07,30,12,13,28.60
2018,07,30,12,14,28.70
2018,07,30,12,15,28.80
2018,07,30,12,16,28.90
2018,07,30,12,17,28.90
2018,07,30,12,18,28.80
2018,07,30,12,19,28.80
2018,07,30,12,20,28.90
2018,07,30,12,21,28.90
2018,07,30,12,22,28.90
2018,07,30,12,23,29.00
2018,07,30,12,24,29.10
2018,07,30,12,25,29.10
2018,07,30,12,26,29.00
2018,07,30,12,27,28.90
2018,07,30,12,28,28.90
2018,07,30,12,29,28.90
2018,07,30,12,30,29.00
2018,07,30,12,31,29.10
2018,07,30,12,32,29.20
2018,07,30,12,33,29.40
2018,07,30,12,34,29.40
2018,07,30,12,35,29.50
2018,07,30,12,36,29.50
2018,07,30,12,37,29.50
2018,07,30,12,38,29.40
2018,07,30,12,39,29.30
2018,07,30,12,40,29.20
2018,07,30,12,41,29.20
2018,07,30,12,42,29.10
2018,07,30,12,43,29.10
2018,07,30,12,44,29.10
2018,07,30,12,45,29.10
2018,07,30,12,46,29.10
2018,07,30,12,47,29.10
2018,07,30,12,48,29.10
2018,07,30,12,49,29.10
2018,07,30,12,50,29.10
2018,07,30,12,51,29.10
2018,07,30,12,52,29.10
2018,07,30,12,53,29.10
2018,07,30,12,54,29.10
2018,07,30,12,55,29.20
2018,07,30,12,56,29.10
2018,07,30,12,57,29.20
2018,07,30,12,58,29.20
2018,07,30,12,59,29.20
2018,07,30,13,00,29.20
2018,07,30,13,01,29.20
2018,07,30,13,02,29.20
2018,07,30,13,03,29.30
2018,07,30,13,04,29.30
2018,07,30,13,05,29.30
2018,07,30,13,06,29.30
2018,07,30,13,07,29.40
2018,07,30,13,08,29.40
2018,07,30,13,09,29.40
2018,07,30,13,10,29.40
2018,07,30,13,11,29.40
2018,07,30,13,12,29.40
2018,07,30,13,13,29.60
2018,07,30,13,14,29.70
2018,07,30,13,15,29.80
2018,07,30,13,16,29.80
2018,07,30,13,17,29.90
2018,07,30,13,18,30.10
2018,07,30,13,19,30.20
2018,07,30,13,20,30.20
2018,07,30,13,21,30.20
2018,07,30,13,22,30.30
2018,07,30,13,23,30.40
2018,07,30,13,24,30.40
2018,07,30,13,25,30.40
2018,07,30,13,26,30.40
2018,07,30,13,27,30.50
2018,07,30,13,28,30.60
2018,07,30,13,29,30.60
2018,07,30,13,30,30.60
2018,07,30,13,31,30.60
2018,07,30,13,32,30.60
2018,07,30,13,33,30.60
2018,07,30,13,34,30.50
2018,07,30,13,35,30.40
2018,07,30,13,36,30.30
2018,07,30,13,37,30.20
2018,07,30,13,38,30.20
2018,07,30,13,39,30.10
2018,07,30,13,40,30.10
2018,07,30,13,41,30.10
2018,07,30,13,42,30.10
2018,07,30,13,43,30.10
2018,07,30,13,44,30.20
2018,07,30,13,45,30.10
2018,07,30,13,46,30.00
2018,07,30,13,47,30.00
2018,07,30,13,48,30.10
2018,07,30,13,49,30.10
2018,07,30,13,50,30.20
2018,07,30,13,51,30.30
2018,07,30,13,52,30.20
2018,07,30,13,53,30.20
2018,07,30,13,54,30.30
2018,07,30,13,55,30.30
2018,07,30,13,56,30.30
2018,07,30,13,57,30.30
2018,07,30,13,58,30.20
2018,07,30,13,59,30.20
2018,07,30,14,00,30.20
2018,07,30,14,01,30.20
2018,07,30,14,02,30.20
2018,07,30,14,03,30.20
2018,07,30,14,04,30.10
2018,07,30,14,05,30.20
2018,07,30,14,06,30.20
2018,07,30,14,07,30.20
2018,07,30,14,08,30.20
2018,07,30,14,09,30.20
2018,07,30,14,10,30.20
2018,07,30,14,11,30.20
2018,07,30,14,12,30.30
2018,07,30,14,13,30.30
2018,07,30,14,14,30.30
2018,07,30,14,15,30.40
2018,07,30,14,16,30.30
2018,07,30,14,17,30.30
2018,07,30,14,18,30.30
2018,07,30,14,19,30.20
2018,07,30,14,20,30.20
2018,07,30,14,21,30.10
2018,07,30,14,22,30.10
2018,07,30,14,23,30.20
2018,07,30,14,24,30.20
2018,07,30,14,25,30.20
2018,07,30,14,26,30.30
2018,07,30,14,27,30.30
2018,07,30,14,28,30.30
2018,07,30,14,29,30.30
2018,07,30,14,30,30.30
2018,07,30,14,31,30.40
2018,07,30,14,32,30.40
2018,07,30,14,33,30.30
2018,07,30,14,34,30.30
2018,07,30,14,35,30.40
2018,07,30,14,36,30.40
2018,07,30,14,37,30.30
2018,07,30,14,38,30.20
2018,07,30,14,39,30.10
2018,07,30,14,40,30.10
2018,07,30,14,41,30.10
2018,07,30,14,42,30.10
2018,07,30,14,43,30.10
2018,07,30,14,44,30.10
2018,07,30,14,45,30.20
2018,07,30,14,46,30.30
2018,07,30,14,47,30.30
2018,07,30,14,48,30.30
2018,07,30,14,49,30.20
2018,07,30,14,50,30.20
2018,07,30,14,51,30.20
2018,07,30,14,52,30.30
2018,07,30,14,53,30.30
2018,07,30,14,54,30.20
2018,07,30,14,55,30.10
2018,07,30,14,56,30.00
2018,07,30,14,57,29.90
2018,07,30,14,58,29.80
2018,07,30,14,59,29.70
2018,07,30,15,00,29.60
2018,07,30,15,01,29.50
2018,07,30,15,02,29.50
2018,07,30,15,03,29.40
2018,07,30,15,04,29.30
2018,07,30,15,05,29.30
2018,07,30,15,06,29.20
2018,07,30,15,07,29.10
2018,07,30,15,08,29.20
2018,07,30,15,09,29.20
2018,07,30,15,10,29.30
2018,07,30,15,11,29.40
2018,07,30,15,12,29.40
2018,07,30,15,13,29.50
2018,07,30,15,14,29.50
2018,07,30,15,15,29.60
2018,07,30,15,16,29.60
2018,07,30,15,17,29.60
2018,07,30,15,18,29.60
2018,07,30,15,19,29.50
2018,07,30,15,20,29.50
2018,07,30,15,21,29.50
2018,07,30,15,22,29.50
2018,07,30,15,23,29.60
2018,07,30,15,24,29.60
2018,07,30,15,25,29.60
2018,07,30,15,26,29.60
2018,07,30,15,27,29.60
2018,07,30,15,28,29.70
2018,07,30,15,29,29.70
2018,07,30,15,30,29.80
2018,07,30,15,31,29.80
2018,07,30,15,32,29.70
2018,07,30,15,33,29.70
2018,07,30,15,34,29.70
2018,07,30,15,35,29.70
2018,07,30,15,36,29.70
2018,07,30,15,37,29.70
2018,07,30,15,38,29.80
2018,07,30,15,39,29.80
2018,07,30,15,40,29.90
2018,07,30,15,41,30.00
2018,07,30,15,42,30.00
2018,07,30,15,43,30.10
2018,07,30,15,44,30.10
2018,07,30,15,45,30.10
2018,07,30,15,46,30.10
2018,07,30,15,47,30.10
2018,07,30,15,48,30.20
2018,07,30,15,49,30.30
2018,07,30,15,50,30.40
2018,07,30,15,51,30.50
2018,07,30,15,52,30.60
2018,07,30,15,53,30.60
2018,07,30,15,54,30.60
2018,07,30,15,55,30.60
2018,07,30,15,56,30.60
2018,07,30,15,57,30.60
2018,07,30,15,58,30.60
2018,07,30,15,59,30.60
2018,07,30,16,00,30.60
2018,07,30,16,01,30.60
2018,07,30,16,02,30.70
2018,07,30,16,03,30.60
2018,07,30,16,04,30.60
2018,07,30,16,05,30.60
2018,07,30,16,06,30.60
2018,07,30,16,07,30.50
2018,07,30,16,08,30.40
2018,07,30,16,09,30.40
2018,07,30,16,10,30.40
2018,07,30,16,11,30.30
2018,07,30,16,12,30.30
2018,07,30,16,13,30.30
2018,07,30,16,14,30.20
2018,07,30,16,15,30.20
2018,07,30,16,16,30.20
2018,07,30,16,17,30.20
2018,07,30,16,18,30.30
2018,07,30,16,19,30.40
2018,07,30,16,20,30.40
2018,07,30,16,21,30.40
2018,07,30,16,22,30.30
2018,07,30,16,23,30.20
2018,07,30,16,24,30.10
2018,07,30,16,25,30.10
2018,07,30,16,26,30.00
2018,07,30,16,27,29.90
2018,07,30,16,28,29.90
2018,07,30,16,29,29.90
2018,07,30,16,30,29.90
2018,07,30,16,31,30.00
2018,07,30,16,32,30.10
2018,07,30,16,33,30.20
2018,07,30,16,34,30.20
2018,07,30,16,35,30.30
2018,07,30,16,36,30.30
2018,07,30,16,37,30.30
2018,07,30,16,38,30.40
2018,07,30,16,39,30.40
2018,07,30,16,40,30.40
2018,07,30,16,41,30.30
2018,07,30,16,42,30.30
2018,07,30,16,43,30.30
2018,07,30,16,44,30.30
2018,07,30,16,45,30.30
2018,07,30,16,46,30.30
2018,07,30,16,47,30.40
2018,07,30,16,48,30.40
2018,07,30,16,49,30.50
2018,07,30,16,50,30.50
2018,07,30,16,51,30.60
2018,07,30,16,52,30.60
2018,07,30,16,53,30.70
2018,07,30,16,54,30.80
2018,07,30,16,55,30.80
2018,07,30,16,56,30.80
2018,07,30,16,57,30.70
2018,07,30,16,58,30.70
2018,07,30,16,59,30.70
2018,07,30,17,00,30.80
2018,07,30,17,01,30.80
2018,07,30,17,02,30.80
2018,07,30,17,03,30.90
2018,07,30,17,04,30.90
2018,07,30,17,05,31.00
2018,07,30,17,06,31.10
2018,07,30,17,07,31.20
2018,07,30,17,08,31.30
2018,07,30,17,09,31.30
2018,07,30,17,10,31.30
2018,07,30,17,11,31.40
2018,07,30,17,12,31.40
2018,07,30,17,13,31.40
2018,07,30,17,14,31.40
2018,07,30,17,15,31.40
2018,07,30,17,16,31.40
2018,07,30,17,17,31.40
2018,07,30,17,18,31.30
2018,07,30,17,19,31.30